Regional Weather Roundup
Issued by NWS Kansas City/Pleasant Hill, MO

Home | Current Version | Previous Version | Text Only | Print | Product List | Glossary On
Versions: 1 2 3 4 5 6 7 8 9 10 11 12 13 14 15 16 17 18 19 20 21 22 23 24 25 26 27 28 29 30 31 32 33 34 35 36 37 38 39 40 41 42 43 44 45 46 47 48 49 50
000
ASUS43 KEAX 140110
RWREAX

WEATHER ROUNDUP FOR EASTERN KANSAS AND NORTHWEST MISSOURI
NATIONAL WEATHER SERVICE KANSAS CITY/PLEASANT HILL MO
700 PM CST SAT FEB 13 2016

KSZ040-057-103>105-MOZ028-029-037-043-140200-
...KANSAS CITY METROPOLITAN AREA...

CITY           SKY/WX    TMP DP  RH WIND       PRES   REMARKS
K.C. INTL      CLOUDY    20   3  48 E16       30.29F WCI   6
K.C. DOWNTOWN  CLOUDY    22   3  44 E14       30.30F WCI   9
LEES SUMMIT    CLOUDY    21   2  43 E16       30.29F WCI   7
OLATHE - IXD   CLOUDY    21   3  45 E13       30.28S WCI   9
OLATHE - OJC   CLOUDY    21   2  43 E14G22    30.27F WCI   8
LAWRENCE       CLOUDY    23   3  42 SE10      30.29S WCI  12

$$

MOZ001>008-011>017-020>025-030>033-038>040-044>046-053-054-140200-
...NORTHERN AND CENTRAL MISSOURI...

CITY           SKY/WX    TMP DP  RH WIND       PRES   REMARKS
ST. JOSEPH     CLOUDY    20   0  41 E13       30.32F WCI   7
MOSBY          CLOUDY    21   3  45 E9        30.33F WCI  11
WARRENSBURG    CLOUDY    23   1  39 E13       30.33F WCI  11
WHITEMAN AFB   CLOUDY    21   2  43 E12       30.31F WCI  10
CLINTON          N/A     27   5  39 E12       30.32F WCI  16
SEDALIA        CLOUDY    22   2  42 E14       30.36F WCI   9
WARSAW         NOT AVBL
CHILLICOTHE      N/A     20   3  48 SE9       30.39F WCI   9
KIRKSVILLE     CLOUDY    17   6  62 E12       30.40F WCI   4

$$

MOZ041-047>049-056>058-063>065-088>090-097-140200-
...EASTERN AND SOUTHERN MISSOURI...

CITY           SKY/WX    TMP DP  RH WIND       PRES   REMARKS
ST. LOUIS INTL CLOUDY    23   2  40 E9        30.48F WCI  13
SPIRIT OF STL  CLOUDY    22   0  38 E10       30.46F WCI  11
COLUMBIA       CLOUDY    20   2  45 SE12      30.39F WCI   8
JEFFERSON CITY CLOUDY    21   1  41 E12       30.42F WCI   9
ROLLA          CLOUDY    21   2  43 E12       30.36F WCI   9
OSAGE BEACH    CLOUDY    23   1  39 E8        30.37S WCI  14
SPRINGFIELD    PTCLDY    34  -2  21 SE15      30.24F WCI  24
BRANSON        MOCLDY    32   3  29 E12       30.28F WCI  23
JOPLIN         CLOUDY    37   9  31 E12       30.21F WCI  29
WEST PLAINS    PTCLDY    27  -2  28 E10       30.36F WCI  17

$$

IAZ060-094-KSZ022-034>040-054-083-096-NEZ052-066-093-140200-
...KANSAS...SOUTHEAST NEBRASKA AND IOWA...

CITY           SKY/WX    TMP DP  RH WIND       PRES   REMARKS
TOPEKA         CLOUDY    24   2  38 SE10      30.29R WCI  14
MANHATTAN      PTCLDY    24   6  46 E12       30.25S WCI  13
EMPORIA        CLOUDY    25   7  46 E14       30.22S WCI  13
CHANUTE        CLOUDY    31   7  36 E9        30.21S WCI  23
WICHITA        CLOUDY    40  11  30 E9        30.14S WCI  34
OMAHA          CLOUDY    19   3  49 SE16      30.28F WCI   4
LINCOLN        CLOUDY    20   5  52 SE14      30.26F WCI   7
FALLS CITY     CLOUDY    20   3  48 SE10      30.28F WCI   9
LAMONI         CLOUDY    16   6  65 E7        30.34F WCI   6
DES MOINES     CLOUDY    15   0  51 SE10      30.38F WCI   2

$$




USA.gov is the U.S. government's official web portal to all federal, state and local government web resources and services.